Вернуться в каталог

CZ-3 DEB

АктивенHEO
NORAD 17425·DEBRIS·🇨🇳 China

Запущен Feb 1, 1986 с Xichang Satellite Launch Center

Loading…

Ближайшие Пролёты (ближайшие 24 часа)

TLE

СвежийSource: Space-Track

Эпоха: Sep 14, 2026, 07:22 UTC

1 17425U 86010C   26257.30712353  .00001389  00000-0  27926-2 0  9999
2 17425  31.2081   2.3334 6267671  98.4694 332.3970  3.51951186165453

Отслеживайте CZ-3 DEB в реальном времени с AllMySat

Download on the App Store